Weather in Zabid

Yemen     14°11′33″N   43°18′30″E
temp.,
°C
wind,
m/s
gust,
m/s
humid.,
%
clouds,
%
prec.,
mm/h
press.,
hPa
HPBL,
m
29 june, wed
wed2900:00+33nnw2256100 0.0 1002108
03:00+33se225399 0.0 100151
06:00+31nnw477692 0.0 1004339
09:00+35nw134794 0.0 10041073
12:00+41nw71028100 0.0 10022240
15:00+41nw13132299 0.0 10012059
18:00+37nnw131433100 0.0 10011213
21:00+33nnw711365 0.0 1002429
30 june, thu
thu3000:00+32nnw483473 0.0 1002209
03:00+30n475082 0.0 1001163
06:00+29nw345467 0.0 100261
09:00+35nw67445 0.0 10041076
12:00+37wnw88360 0.0 10031552
15:00+36nw1011405 0.0 10011330
18:00+34nw1112435 0.0 10011081
21:00+32nnw8124788 0.0 1003505
1 july, fri
fri100:00+31n595196 0.0 1002348
03:00+30nnw335681 0.0 100129
06:00+29nnw37585 0.0 1003162
09:00+35wnw674198 0.0 10051167
12:00+38wnw9113342 0.0 10041647
15:00+39nw13162528 0.0 10022096
18:00+36nnw11163099 0.0 10031561
21:00+35n111722100 0.0 1004853
2 july, sat
sat200:00+35nw4619100 0.0 100495
03:00+32wnw573194 0.0 1003120
06:00+30n2263100 0.0 100433
09:00+35nnw564160 0.0 10061028
12:00+39wnw9113099 0.0 10041948
15:00+38nw11122984 0.0 10031345
18:00+35nnw10133998 0.0 10031024
21:00+34nnw9153492 0.0 1004530
3 july, sun
sun300:00+35n81428100 0.0 1003452
03:00+32nnw5103719 0.0 1002158
06:00+31nnw71260100 0.0 1003458
09:00+37nnw913307 0.0 10041352
12:00+41nw1314245 0.0 10022562
15:00+38nw13143511 0.0 10011522
18:00+35nw12153719 0.0 10021251
21:00+34nnw11173394 0.0 1003594